User: anonymous   Login
Location: Unspecified
(0.0000°N, 0.0000°E)
Time: 07:47:11
(UTC+00:00)
Language:

STARLINK-35324 - Orbit

View from above orbital plane
View from above orbital plane
View from above satellite
View from above satellite

Ground track
Ground track

The orbit is defined by the following mean orbital elements,

1 65838U          26145.27710788 +.00000000 +00000-0 +62740-3 0 00003
2 65838  53.1579  93.0029 0001267  92.4283 267.6863 15.30213305    00
Epoch (UTC): 25 May 2026 06:39:02
Eccentricity: 0.0001267
inclination: 53.1579°
perigee height: 474 km
apogee height: 476 km
right ascension of ascending node: 93.0029°
argument of perigee: 92.4283°
revolutions per day: 15.30213305
mean anomaly at epoch: 267.6863°

The dashed part of the orbit path shows where the satellite is in the earth's shadow,  

DLR